sat.trackr.live / text

‹ back to catalog

STARLINK-35482

NORAD 66346 · 2025-253AD

PAYLOAD ACTIVE UNKNOWN

§ Identity

Operator
Country
US
Launch date
2025-11-06
Launch site
AFETR
Launch vehicle
Mass (kg)
RCS (m²)

Purposes: comms

External: N2YO · Heavens-Above · Gunter

§ Orbital elements

Epoch: 2026-09-20T04:40:39.649440Z

Period
94.27 min
Inclination
43.0028°
Eccentricity
0.0001555
Mean motion
15.27601379 rev/d
Perigee alt
481.9 km
Apogee alt
484.1 km
Semi-major
6,861.1 km
B*
5.6893e-4
RAAN
193.8581°
Arg perigee
263.4663°
Mean anomaly
96.6012°
Rev number
4,999

§ Raw data

STARLINK-354821 66346U 25253AD  26263.19490335  .00015437  00000+0  56893-3 0  99982 66346  43.0028 193.8581 0001555 263.4663  96.6012 15.27601379 49991

JSON: /api/v1/satellites/66346 · /tle

For live sub-satellite position, see the globe view (requires WebGL).

§ Visibility from observer

Set your observer location to see the next 7 days of passes ≥ 10°. The values pass through the URL so the page stays shareable.

No JS? Fill the form by hand. The geolocation button needs JavaScript.